Starlink 1727

operational
NORAD ID: 46335 Int'l Des: 2020-062 Owner: SPXS Country: US Constellation: starlink
LEOCIRCULARSTARLINK_TYPE

Starlink 1727について

説明を読み込み中...

リアルタイム位置

3D地球を読み込み中...

次回通過

高度履歴

Altitude vs Time

uPlot chart will show altitude changes over time

軌道要素

1 46335U 20062L 25350.33857934 .00097839 00000-0 20975-2 0 9999
2 46335 53.0536 19.9445 0010190 16.8063 343.3278 15.43922166291902
Epoch: Dec 16, 2025 • Age: 16 hours

現在のステータス

高度 445.8 km
速度 7.64 km/s
衛星直下点 -17.49°S, 116.45°E
打ち上げ日 Sep 3, 2020
運用期間 5.2 years
タイプ internet

技術仕様

分類 Payload
質量 260.00 kg
乾燥質量 248.00 kg
総質量 260.00 kg
長さ 0.20 m
直径 2.80 m
スパン 9.00 m
形状 Box + pan
製造者 SPXS
バスタイプ Starlink
フェーズステータス In Orbit
所有者/国 SPXS/US

大規模コンステレーション

Loading constellations...